Wind_Speed
27 29 28 28 29 30 29 29 29 29 28 29 29 30 31 32 32 32 32 31 30 32 32 32 31 30 30 29 27 25 25 26 28 28 32 35 37 35 34 34 29 28 26 22 23
29 29 28 28 30 30 30 30 28 29 30 31 32 33 32 32 32 31 30 29 27 26 27 28 28 28 24 22 19 18 19 17 22 24 27 29 32 34 40 39 33 36 31 29 26
29 31 29 28 28 28 28 29 28 28 29 29 28 29 30 29 23 24 25 22 23 22 22 23 23 23 17 13 11 13 11 11 15 14 17 20 26 30 36 41 33 38 39 35 32
30 31 30 30 29 28 26 26 27 26 26 26 24 25 27 30 28 27 27 25 26 23 21 20 21 18 17 14 12 13 15 12 16 13 14 16 19 20 28 27 28 37 43 43 37
33 33 33 31 30 31 30 28 28 27 26 26 26 27 30 34 30 30 31 30 30 28 25 21 20 20 22 18 14 20 22 23 20 19 18 17 24 23 27 18 28 28 38 44 44
34 34 33 34 35 34 32 30 31 32 29 28 29 30 33 40 36 33 33 32 31 32 32 30 28 25 26 27 24 24 23 22 25 22 21 19 29 28 29 22 29 26 27 32 43
38 32 32 35 34 36 37 35 35 32 32 31 31 30 34 43 38 35 31 32 34 34 34 32 31 31 31 35 33 29 27 30 31 31 26 21 31 35 32 28 33 33 30 30 32
41 38 40 39 38 38 38 40 39 38 38 34 32 29 34 44 41 39 36 36 36 33 33 35 32 33 36 36 36 38 32 34 41 40 34 31 27 43 37 33 36 35 34 32 30
47 48 48 44 42 39 37 37 38 40 39 38 37 35 37 45 46 45 42 42 39 40 36 35 34 35 42 42 35 40 35 38 40 48 38 35 27 42 42 42 42 44 37 35 31
50 48 49 51 48 46 46 45 39 39 38 43 43 43 42 48 48 48 50 48 45 44 45 42 39 38 44 47 41 41 39 39 39 52 43 36 33 33 46 44 45 51 48 41 36
55 57 52 50 48 49 50 53 50 44 42 39 39 40 47 50 50 55 56 54 53 54 55 50 44 44 51 48 46 43 40 39 41 47 40 36 29 38 42 50 51 49 53 51 46
54 58 59 61 59 59 59 56 52 50 48 50 51 47 47 46 46 51 57 57 56 54 57 53 49 52 52 53 51 49 46 42 41 44 41 38 30 33 40 45 55 56 53 54 52
60 58 65 67 68 67 59 60 60 57 53 57 60 50 55 51 50 55 58 60 60 62 58 46 47 58 56 57 60 58 57 50 42 44 38 35 26 36 44 48 49 55 54 54 54
77 71 72 70 71 68 65 69 58 56 51 48 57 63 59 62 57 59 65 66 60 61 62 59 66 64 60 56 63 54 66 62 58 51 45 47 27 37 43 48 49 49 52 56 58
77 86 83 82 72 74 78 82 75 69 58 61 53 56 66 69 63 70 67 66 65 66 69 65 62 64 60 70 68 54 66 66 64 65 62 49 60 38 39 47 50 52 57 58 63
80 80 86 82 89 83 72 87 85 73 68 68 75 73 73 72 81 83 72 81 86 76 72 68 72 59 71 70 73 77 80 83 79 71 51 64 71 30 49 48 53 52 55 61 61
82 89 84 92 83 83 79 75 89 82 78 74 73 81 84 82 82 84 92 80 83 89 79 74 78 79 73 78 80 81 85 86 87 90 78 72 63 46 56 61 60 61 62 69 74
92 88 91 86 93 85 85 90 85 84 80 85 87 89 90 94 90 90 90 89 88 89 87 83 80 87 87 86 87 85 92 94 100 94 90 89 80 71 72 64 67 73 79 85 86
93 92 90 97 97 98 98 96 90 90 85 93 101 96 94 95 99 99 97 97 92 92 96 98 92 90 97 93 94 96 99 100 112 109 106 96 95 89 83 80 79 77 85 91 91
101 101 98 103 105 105 106 101 97 97 102 105 107 104 101 103 108 107 104 101 98 102 109 114 106 97 99 103 101 110 108 109 111 116 113 111 107 98 90 90 98 103 90 95 99
108 109 106 107 106 111 109 106 106 104 107 109 113 115 111 111 114 114 113 109 107 113 118 116 120 109 112 107 110 114 113 115 119 120 124 125 125 104 98 97 101 105 103 112 112
121 110 115 111 121 123 117 111 116 114 117 120 120 118 123 117 114 118 114 117 118 118 124 118 129 128 124 120 119 123 121 115 126 129 136 139 141 120 115 110 105 110 122 125 117
126 127 119 131 130 130 132 121 116 123 127 123 127 129 123 120 130 128 127 126 132 132 131 133 132 139 141 130 131 134 131 134 133 137 140 142 141 129 122 124 125 127 131 133 142
143 138 143 141 146 139 139 135 133 125 129 140 144 141 143 136 134 145 143 141 142 138 137 141 143 150 151 144 138 136 143 140 142 147 145 147 143 140 134 131 124 130 142 149 136
159 159 158 152 153 154 156 154 150 145 150 148 149 150 151 157 154 157 156 150 142 138 139 148 153 146 152 159 150 152 152 149 147 152 150 149 147 151 148 155 147 130 116 108 113
168 167 166 162 162 164 163 164 163 157 161 160 167 164 164 163 171 173 171 173 171 168 174 169 169 161 158 152 162 163 159 150 152 153 157 155 160 162 132 125 115 115 115 110 111
174 172 174 169 168 170 165 168 174 169 169 166 158 159 151 155 153 145 143 134 137 139 133 131 130 134 134 135 144 137 129 141 138 136 134 127 121 123 125 117 111 104 99 94 91
Wind_Direction
266 268 269 269 269 268 268 270 272 272 273 276 275 277 281 285 287 289 292 293 294 291 292 295 296 295 296 296 291 286 280 282 283 282 277 271 265 267 267 264 262 263 266 262 267
264 266 270 272 271 271 271 269 271 273 275 275 276 280 281 284 287 292 291 291 292 294 294 296 299 298 300 300 296 289 285 286 279 279 280 280 278 268 260 261 258 264 260 264 260
267 266 267 269 271 272 275 276 274 274 275 277 279 280 281 283 286 291 295 293 296 299 301 298 296 299 299 298 291 291 294 291 298 305 296 296 285 279 275 269 265 258 262 258 260
266 267 267 266 270 269 271 273 275 275 277 280 279 279 282 286 287 291 291 292 291 295 294 297 292 292 292 289 293 286 291 291 291 292 291 293 297 296 281 284 279 254 255 259 257
273 271 268 268 269 271 270 268 269 271 272 274 275 280 281 282 287 290 290 289 290 290 287 283 282 280 284 275 271 285 288 285 289 289 285 286 287 291 291 290 278 274 256 252 257
275 275 273 268 269 269 268 268 271 272 271 270 272 276 277 277 282 282 283 284 283 285 284 285 284 278 279 277 276 279 280 292 282 281 284 290 289 283 285 287 284 282 279 268 256
275 270 280 275 275 275 276 273 271 272 272 271 273 273 278 277 280 281 280 280 280 280 281 280 280 280 275 276 282 281 272 279 285 281 280 285 288 288 284 284 286 284 284 286 279
272 271 280 275 279 276 280 277 278 277 274 271 273 272 273 277 276 279 279 282 280 280 286 287 287 285 279 276 275 278 276 284 287 283 279 284 283 292 293 289 282 280 282 286 288
272 273 276 272 277 280 289 281 279 278 281 280 275 275 276 276 278 280 280 281 283 281 281 288 293 299 284 276 285 285 282 281 283 279 277 283 277 280 291 288 288 283 276 277 279
275 277 277 276 273 273 282 287 286 282 280 277 279 278 278 281 284 284 284 283 284 282 283 282 287 290 277 286 295 295 292 284 283 279 283 285 280 281 285 288 283 287 286 279 273
271 269 273 278 276 279 282 277 280 284 280 287 284 287 282 275 279 281 282 287 288 285 284 285 285 278 275 286 284 290 293 290 278 279 289 293 288 281 281 283 284 282 288 291 292
267 270 269 271 270 278 280 283 274 279 280 284 290 283 287 279 278 277 279 283 287 289 287 285 287 278 284 283 283 285 285 286 280 280 284 279 284 282 281 278 283 289 288 290 288
267 271 270 266 272 269 275 275 273 275 277 282 283 284 277 283 278 279 277 280 284 283 283 289 290 280 276 279 280 283 284 278 278 276 283 278 276 278 282 281 282 286 291 291 290
261 264 272 278 269 266 269 268 271 273 269 276 274 272 284 274 276 279 284 284 287 286 289 289 287 285 277 277 277 282 281 282 278 281 275 287 274 278 279 278 282 285 284 288 292
265 261 265 268 273 266 263 269 266 265 276 271 289 279 278 277 286 280 279 290 277 283 283 286 292 283 292 283 281 281 281 282 283 285 276 278 283 272 270 275 279 280 284 283 288
264 264 264 271 271 275 272 264 263 270 282 277 275 278 277 277 273 279 288 278 283 293 289 277 287 282 277 286 285 278 277 280 286 290 291 281 276 272 276 267 268 274 284 291 289
267 265 267 270 269 273 269 270 266 274 284 276 277 275 278 278 281 277 278 280 281 281 291 280 286 292 283 283 289 280 280 284 288 288 289 289 282 290 281 275 285 279 280 285 281
270 264 267 270 272 276 267 271 276 285 281 274 282 277 279 287 282 282 285 285 280 279 283 287 284 285 289 279 281 284 286 290 287 290 291 285 300 302 289 283 282 287 289 292 290
267 267 269 272 275 275 274 274 286 283 283 273 278 278 278 285 283 286 284 288 278 278 282 282 285 286 283 280 277 285 289 284 293 295 290 288 292 292 293 280 284 281 281 284 281
272 273 274 274 273 274 278 286 282 277 280 282 283 279 280 282 284 285 285 287 279 281 284 283 282 280 283 282 284 281 280 284 286 287 286 286 284 290 287 279 287 290 281 275 279
271 275 274 275 273 273 281 282 279 276 274 279 282 281 282 277 282 281 284 283 280 279 284 278 278 280 283 289 280 284 286 283 281 283 285 286 286 285 286 285 281 284 285 281 278
270 272 270 269 269 276 277 280 282 278 279 280 279 281 283 278 274 277 282 285 282 282 286 277 283 283 289 288 287 284 284 281 278 283 284 287 291 293 288 285 280 281 283 278 278
264 267 268 270 271 273 273 273 274 277 276 279 280 284 278 280 283 279 281 283 283 284 286 286 281 284 286 286 288 283 283 284 282 282 282 285 288 288 282 284 288 287 283 280 281
269 266 269 267 269 270 267 267 269 268 269 274 275 276 280 280 277 280 281 281 280 279 279 279 279 283 283 283 282 277 280 280 279 282 286 283 286 283 281 281 276 277 279 284 283
267 269 270 269 270 270 271 271 270 269 269 268 270 271 273 274 277 278 278 276 277 275 274 274 277 275 277 280 279 278 279 279 278 280 278 280 279 281 280 278 279 279 276 272 271
273 272 271 270 269 270 270 272 273 273 271 272 273 272 272 271 273 273 274 274 273 274 276 275 274 274 272 270 274 275 278 281 279 277 278 277 278 280 279 278 276 272 270 268 266
270 272 271 272 274 274 272 273 273 275 273 274 274 275 273 275 275 275 275 273 274 272 272 273 274 275 274 273 272 275 279 273 274 275 277 275 274 277 278 278 276 275 272 272 266
Height
10821 10822 10821 10822 10823 10823 10822 10822 10822 10822 10822 10822 10821 10820 10820 10820 10818 10817 10816 10816 10814 10813 10812 10810 10808 10806 10805 10802 10801 10799 10797 10796 10794 10793 10793 10793 10794 10794 10791 10790 10790 10790 10789 10789 10787
10816 10816 10816 10816 10816 10816 10817 10816 10816 10817 10816 10816 10816 10814 10813 10813 10813 10812 10811 10810 10809 10807 10805 10803 10802 10800 10798 10796 10794 10793 10791 10790 10789 10788 10787 10786 10785 10787 10784 10783 10787 10784 10786 10784 10783
10811 10811 10811 10811 10810 10810 10810 10811 10811 10811 10811 10810 10810 10809 10808 10806 10807 10806 10804 10804 10802 10802 10800 10797 10795 10794 10793 10791 10791 10788 10788 10786 10785 10784 10783 10782 10779 10778 10774 10774 10783 10779 10778 10778 10778
10805 10805 10805 10805 10805 10805 10804 10805 10806 10805 10805 10805 10804 10803 10801 10799 10800 10800 10798 10797 10796 10795 10794 10793 10791 10790 10788 10787 10787 10786 10783 10782 10780 10780 10779 10778 10775 10773 10767 10773 10770 10771 10769 10769 10771
10799 10799 10799 10799 10798 10799 10799 10799 10799 10799 10799 10800 10799 10798 10795 10791 10794 10794 10792 10791 10790 10789 10788 10787 10786 10785 10783 10783 10783 10780 10778 10776 10776 10774 10773 10772 10768 10768 10764 10768 10762 10761 10761 10762 10764
10793 10793 10793 10793 10793 10792 10792 10794 10794 10793 10794 10794 10793 10792 10790 10782 10787 10787 10785 10784 10784 10783 10782 10782 10781 10780 10779 10777 10777 10776 10775 10772 10769 10768 10768 10768 10761 10761 10759 10762 10756 10757 10756 10756 10756
10785 10786 10787 10787 10786 10786 10786 10788 10787 10787 10789 10788 10788 10788 10785 10774 10777 10778 10779 10777 10775 10776 10775 10775 10774 10773 10772 10769 10769 10768 10769 10767 10762 10761 10763 10764 10755 10752 10754 10756 10750 10750 10751 10751 10749
10775 10776 10778 10779 10778 10778 10779 10780 10780 10781 10781 10782 10782 10782 10778 10768 10768 10767 10769 10768 10768 10768 10768 10768 10770 10769 10764 10761 10762 10762 10764 10761 10753 10752 10758 10760 10758 10738 10747 10749 10745 10743 10743 10745 10744
10766 10766 10767 10768 10769 10769 10771 10771 10773 10774 10774 10775 10776 10776 10773 10762 10758 10758 10758 10757 10759 10759 10759 10759 10763 10763 10756 10751 10759 10753 10760 10755 10752 10738 10748 10751 10754 10740 10739 10739 10738 10734 10738 10739 10738
10755 10755 10757 10757 10759 10759 10761 10762 10765 10766 10765 10765 10767 10766 10765 10758 10753 10749 10747 10748 10749 10749 10749 10749 10755 10753 10741 10744 10753 10748 10749 10748 10746 10728 10740 10747 10748 10743 10730 10730 10727 10720 10724 10729 10731
10745 10746 10746 10746 10747 10747 10749 10751 10754 10757 10757 10757 10758 10757 10754 10752 10748 10741 10733 10735 10738 10739 10737 10741 10744 10741 10729 10734 10736 10737 10738 10738 10735 10729 10738 10739 10742 10736 10729 10719 10716 10716 10716 10716 10721
10733 10732 10734 10735 10736 10737 10737 10738 10741 10744 10749 10746 10746 10749 10742 10742 10742 10732 10724 10725 10726 10726 10724 10729 10735 10724 10723 10720 10721 10722 10723 10725 10726 10721 10724 10731 10736 10730 10721 10717 10707 10707 10709 10709 10708
10721 10720 10722 10722 10722 10723 10724 10725 10726 10729 10737 10734 10734 10735 10728 10729 10729 10722 10717 10716 10716 10715 10710 10718 10721 10711 10709 10708 10703 10705 10703 10707 10713 10709 10713 10718 10729 10723 10712 10706 10707 10703 10698 10695 10697
10706 10705 10706 10706 10708 10708 10710 10711 10712 10713 10723 10726 10721 10720 10715 10714 10713 10709 10705 10706 10706 10705 10699 10712 10699 10697 10697 10697 10680 10697 10679 10691 10694 10697 10705 10704 10719 10717 10704 10698 10696 10695 10690 10684 10681
10688 10688 10689 10689 10690 10691 10692 10694 10695 10694 10707 10710 10709 10705 10698 10695 10694 10692 10690 10690 10693 10690 10689 10695 10687 10683 10682 10677 10670 10680 10670 10669 10674 10679 10689 10692 10691 10708 10701 10693 10688 10682 10678 10680 10673
10669 10669 10670 10670 10669 10672 10672 10675 10674 10673 10693 10691 10687 10683 10682 10678 10675 10673 10672 10673 10672 10672 10674 10676 10670 10671 10664 10660 10653 10650 10652 10650 10653 10657 10673 10671 10666 10709 10686 10685 10681 10675 10667 10663 10663
10649 10650 10651 10649 10646 10648 10649 10652 10650 10664 10670 10670 10666 10661 10659 10657 10656 10655 10652 10653 10649 10648 10653 10654 10653 10648 10640 10638 10633 10628 10630 10630 10629 10631 10648 10645 10649 10686 10669 10663 10663 10662 10660 10655 10648
10624 10626 10630 10628 10622 10620 10623 10624 10632 10652 10647 10641 10638 10637 10636 10630 10629 10629 10632 10633 10626 10620 10626 10627 10636 10626 10624 10614 10615 10611 10605 10602 10586 10606 10618 10615 10631 10656 10647 10646 10639 10638 10635 10628 10626
10597 10599 10607 10603 10597 10594 10591 10601 10621 10618 10617 10611 10605 10606 10612 10606 10596 10601 10603 10612 10607 10600 10592 10589 10611 10603 10601 10596 10593 10593 10590 10574 10560 10564 10567 10601 10608 10622 10628 10621 10619 10616 10612 10605 10595
10566 10573 10582 10574 10570 10563 10562 10589 10595 10589 10580 10577 10576 10576 10586 10580 10571 10570 10571 10589 10583 10579 10567 10558 10562 10583 10576 10576 10582 10561 10562 10557 10547 10528 10529 10543 10568 10590 10605 10598 10590 10587 10580 10572 10567
10543 10545 10558 10542 10537 10535 10547 10563 10564 10565 10552 10547 10548 10546 10558 10556 10547 10542 10543 10557 10558 10551 10544 10530 10527 10557 10546 10556 10551 10541 10534 10532 10514 10508 10496 10492 10503 10564 10566 10569 10562 10556 10551 10539 10531
10522 10529 10530 10525 10512 10516 10527 10531 10529 10536 10527 10521 10515 10518 10523 10521 10511 10515 10518 10518 10521 10512 10504 10501 10486 10483 10519 10523 10518 10510 10507 10503 10480 10484 10467 10454 10449 10516 10520 10519 10525 10527 10513 10497 10491
10500 10505 10501 10493 10499 10502 10497 10503 10506 10514 10503 10494 10486 10489 10485 10486 10471 10480 10482 10493 10481 10479 10474 10472 10460 10451 10463 10488 10491 10470 10474 10468 10456 10441 10438 10436 10438 10464 10474 10478 10475 10463 10450 10450 10453
10465 10468 10474 10469 10476 10470 10472 10476 10478 10491 10485 10472 10462 10460 10462 10456 10457 10449 10456 10457 10452 10454 10448 10434 10435 10434 10427 10429 10453 10445 10439 10440 10421 10404 10415 10397 10403 10415 10433 10439 10453 10417 10400 10406 10417
10426 10430 10430 10436 10438 10432 10429 10436 10447 10453 10442 10440 10432 10437 10436 10426 10431 10427 10422 10427 10430 10420 10415 10407 10404 10398 10400 10405 10399 10395 10401 10404 10397 10389 10369 10375 10371 10373 10379 10381 10390 10395 10388 10386 10384
10380 10383 10387 10395 10398 10397 10397 10398 10394 10407 10392 10401 10390 10398 10390 10387 10383 10395 10390 10389 10393 10389 10381 10370 10367 10365 10363 10380 10359 10351 10361 10375 10357 10345 10337 10335 10330 10321 10330 10335 10339 10346 10350 10359 10355
10335 10335 10341 10356 10353 10347 10359 10353 10349 10349 10353 10348 10351 10345 10343 10339 10335 10331 10334 10339 10342 10339 10339 10331 10324 10317 10318 10338 10313 10316 10353 10321 10314 10308 10308 10300 10294 10292 10286 10297 10294 10302 10308 10321 10329